Location: Sunset Hills
(34.4956°N, 117.2223°W)
Time: 02:49:35
(UTC+00:00)

CBERS-1 - Pass Details

Date: 03 August 2024
Orbit: 766 x 775 km, 98.8° (Epoch: 11 September)

Event Time Altitude Azimuth Distance (km) Brightness Sun altitude
Rises 12:12:46 0° 15° (NNE) 3,249 8.0 -9.9°
Reaches altitude 10° 12:15:06 10° 18° (NNE) 2,317 7.2 -9.4°
Maximum altitude 12:20:12 70° 102° (ESE) 817 4.3 -8.5°
Drops below altitude 10° 12:25:14 10° 186° (S) 2,297 6.2 -7.6°
Sets 12:27:32 0° 189° (S) 3,219 6.9 -7.2°
